Weather observations for the past three days for
Phifer Airfield - Wheatland
Imperial (Metric)
Date Time (mdt) Wind (mph) Vis. (mi.) Weather Sky Cond. Temperature (ºF) Relative Humidity Wind Chill (°F) Heat Index (°F) Pressure Precipitation (in)
Air Dwpt 6 hour altimeter (in) sea level (mb) 1 hr 3 hr 6 hr
Max. Min.
12 22:15 W 7 10.00 Fair CLR 80.4 35.8 20% 79 29.93 0.0
12 21:55 W 10 G 17 10.00 Fair CLR 82.4 34.9 18% 80 29.93 0.0
12 21:35 W 10 G 16 10.00 Fair CLR 83.1 33.1 16% 81 29.93 0.0
12 21:15 W 12 G 20 10.00 Fair CLR 84.2 32 15% 81 29.92 0.0
12 20:55 W 10 G 18 10.00 Fair CLR 85.1 32 15% 82 29.91 0.0
12 20:35 W 12 10.00 Fair CLR 86.9 32.2 14% 83 29.91 0.0
12 20:15 W 13 G 21 10.00 Fair CLR 88 32.4 14% 84 29.9 0.0
12 19:55 W 12 G 22 10.00 Fair CLR 89.2 32 13% 85 29.9 0.0
12 19:35 SW 8 10.00 Fair CLR 90.1 33.3 13% 86 29.89 0.0
12 19:15 SW 8 10.00 Fair CLR 91.4 32.2 12% 87 29.89 0.0
12 18:55 W 10 G 18 10.00 Fair CLR 92.1 32 12% 88 29.9 0.0
12 18:35 W 16 G 29 10.00 Fair CLR 94.5 32 11% 90 29.89 0.0
12 18:15 W 14 G 20 10.00 Fair CLR 91.8 31.5 12% 87 29.89 0.0
12 17:55 NW 12 G 22 10.00 Fair CLR 93.4 29.8 97.2 91.6 10% 89 29.89 0.0
12 17:35 NW 14 G 23 10.00 Fair CLR 95 30.2 10% 90 29.89 0.0
12 17:15 NW 14 G 23 10.00 Fair CLR 96.4 30.9 10% 91 29.89 0.0
12 16:55 W 13 G 26 10.00 Fair CLR 97 30.6 9% 92 29.9 0.0
12 16:35 W 17 G 24 10.00 Fair CLR 93.4 28.9 10% 89 29.91 0.0
12 16:15 NW 15 G 24 10.00 Fair CLR 95.9 30.2 10% 91 29.91 0.0
12 15:55 W 13 G 24 10.00 Fair CLR 95.4 30.6 10% 91 29.92 0.0
12 15:35 NW 12 G 18 10.00 Fair CLR 92.5 30.2 11% 88 29.92 0.0
12 15:15 NW 14 G 23 10.00 Fair CLR 95 30.7 10% 90 29.93 0.0
12 14:55 NW 17 G 22 10.00 Fair CLR 95.7 31.1 10% 91 29.93 0.0
12 14:35 W 15 G 29 10.00 Fair CLR 95.7 30.9 10% 91 29.94 0.0
12 14:15 W 13 G 26 10.00 Fair CLR 95.5 31.6 10% 91 29.95 0.0
12 13:55 W 15 G 24 10.00 Fair CLR 94.1 31.8 11% 89 29.95 0.0
12 13:35 W 14 G 23 10.00 Fair CLR 94.3 32.2 11% 90 29.96 0.0
12 13:15 W 17 G 23 10.00 Fair CLR 94.8 32.5 11% 90 29.97 0.0
12 12:55 W 15 G 23 10.00 Fair CLR 95 33.8 11% 90 29.97 0.0
12 12:35 NW 14 G 24 10.00 Fair CLR 93.2 32.5 12% 89 29.97 0.0
12 12:15 NW 13 G 24 10.00 Fair CLR 93.2 31.6 11% 89 29.97 0.0
12 11:55 W 18 G 28 10.00 Fair CLR 91.9 31.1 91.9 68.4 11% 88 29.98 0.0
12 11:35 W 17 G 30 10.00 Fair CLR 91.2 32.9 13% 87 29.98 0.0
12 11:15 NW 10 G 20 10.00 Fair CLR 89.6 34.2 14% 86 29.99 0.0
12 10:55 NW 12 G 24 10.00 Fair CLR 88.7 33.1 14% 85 29.99 0.0
12 10:35 NW 15 G 21 10.00 Fair CLR 88.9 34.3 14% 85 29.99 0.0
12 10:15 W 15 G 22 10.00 Fair CLR 87.4 34 15% 84 30 0.0
12 09:55 W 18 G 23 10.00 Fair CLR 86.4 34 15% 83 30 0.0
12 09:35 W 13 G 22 10.00 Fair CLR 85.8 35.6 17% 83 30 0.0
12 09:15 NW 10 G 17 10.00 Fair CLR 85.3 38.7 19% 82 30 0.0
12 08:55 NW 8 G 16 10.00 Fair CLR 84 38.7 20% 81 30 0.0
12 08:35 W 14 10.00 Fair CLR 81.3 38.5 22% 79 29.99 0.0
12 08:15 W 14 G 21 10.00 Fair CLR 79.7 38.1 23% 79 29.99 0.0
12 07:55 W 13 G 16 10.00 Fair CLR 77.9 37.9 24% 78 29.99 0.0
12 07:35 W 10 10.00 Fair CLR 75.9 38.3 26% 77 29.99 0.0
12 07:15 W 7 10.00 Fair CLR 73.6 38.1 28% 29.99 0.0
12 06:55 W 9 10.00 Fair CLR 72.3 37.2 28% 29.99 0.0
12 06:35 SW 6 10.00 Fair CLR 71.4 36.9 28% 29.97 0.0
12 06:15 W 12 10.00 Fair CLR 70.3 36.5 29% 29.97 0.0
12 05:55 W 12 G 17 10.00 Fair CLR 68.2 36.7 72.9 68 31% 29.97 0.0
12 05:35 W 12 G 17 10.00 Fair CLR 68.5 36 30% 29.96 0.0
12 05:15 SW 12 G 17 10.00 Fair CLR 68.5 35.4 30% 29.95 0.0
12 04:55 W 12 G 21 10.00 Fair CLR 70.7 34 26% 29.94 0.0
12 04:35 W 9 10.00 Fair CLR 72 33.1 24% 29.93 0.0
12 04:15 W 8 10.00 Fair CLR 71.2 33.1 25% 29.93 0.0
12 03:55 W 10 10.00 Fair CLR 69.8 33.4 26% 29.93 0.0
12 03:35 W 8 G 16 10.00 Fair CLR 71.1 32.5 24% 29.93 0.0
12 03:15 SW 8 10.00 Fair CLR 70.5 32.9 25% 29.92 0.0
12 02:55 SW 9 10.00 Fair CLR 71.4 32.4 24% 29.92 0.0
12 02:35 W 10 10.00 Fair CLR 72 32.2 23% 29.91 0.0
12 02:15 W 13 G 17 10.00 Fair CLR 72.7 32.2 23% 29.91 0.0
12 01:55 W 10 G 17 10.00 Fair CLR 72.7 32 22% 29.9 0.0
12 01:35 W 13 G 17 10.00 Fair CLR 72.1 32.5 23% 29.9 0.0
12 01:15 W 12 10.00 Fair CLR 72.9 32.2 22% 29.9 0.0
12 00:55 W 12 G 17 10.00 Fair CLR 72.7 32.9 23% 29.9 0.0
12 00:35 SW 7 10.00 Fair CLR 70.5 34.7 27% 29.9 0.0
12 00:15 SW 8 10.00 Fair CLR 71.2 34.5 26% 29.9 0.0
11 23:55 SW 8 10.00 Fair CLR 70.7 35.2 91.4 70.7 27% 29.89 0.0
11 23:35 SW 8 10.00 Fair CLR 71.8 35.2 26% 29.89 0.0
11 23:15 SW 9 10.00 Fair CLR 72.7 34.5 25% 29.9 0.0
11 22:55 SW 7 10.00 Fair CLR 72.7 33.8 24% 29.9 0.0
11 22:35 SW 7 10.00 Fair CLR 71.6 35.4 27% 29.9 0.0
11 22:15 SW 7 10.00 Fair CLR 70.9 36.5 28% 29.9 0.0
11 21:55 SW 7 10.00 Fair CLR 72.5 36.1 27% 29.89 0.0
11 21:35 SW 6 10.00 Fair CLR 72.3 37.6 28% 29.89 0.0
11 21:15 SW 3 10.00 Fair CLR 74.8 34.9 23% 29.89 0.0
11 20:55 Calm 10.00 Fair CLR 79.3 31.5 17% 78 29.88 0.0
11 20:35 N 3 10.00 Fair CLR 79.5 32.4 18% 78 29.89 0.0
11 20:15 W 5 10.00 Fair CLR 83.7 28.4 13% 81 29.88 0.0
11 19:35 W 3 10.00 Fair CLR 89.1 29.8 12% 85 29.89 0.0
11 19:15 SW 5 10.00 Fair CLR 88.9 29.1 12% 85 29.89 0.0
11 18:55 W 6 10.00 Fair CLR 88 28.6 12% 84 29.89 0.0
11 18:35 SW 7 10.00 Fair CLR 90.9 28.2 10% 87 29.89 0.0
11 18:15 SW 8 10.00 Fair CLR 91.4 27.5 10% 87 29.9 0.0
11 17:55 SW 8 10.00 Fair CLR 91.6 27.1 91.9 81.9 10% 87 29.91 0.0
11 17:35 W 8 10.00 Fair CLR 91.4 24.6 9% 87 29.92 0.0
11 17:15 W 10 G 16 10.00 Fair CLR 91 25.7 9% 87 29.93 0.0
11 16:55 W 10 10.00 Fair CLR 91.9 23.9 8% 88 29.93 0.0
11 16:35 W 9 G 18 10.00 Fair CLR 91.2 24.3 9% 87 29.94 0.0
11 16:15 W 8 G 16 10.00 Fair CLR 91.2 25.9 9% 87 29.95 0.0
11 15:55 W 9 10.00 Fair CLR 90.1 29.8 11% 86 29.95 0.0
11 15:35 W 10 G 16 10.00 Fair CLR 90.9 30.7 12% 87 29.97 0.0
11 15:15 W 9 G 16 10.00 Fair CLR 90.7 32.2 12% 86 29.97 0.0
11 14:55 SW 12 G 17 10.00 Fair CLR 90 32 13% 86 29.98 0.0
11 14:35 W 10 G 18 10.00 Fair CLR 90.1 31.6 12% 86 29.99 0.0
11 14:15 W 10 G 22 10.00 Fair CLR 89.1 33.4 14% 85 30 0.0
11 13:55 W 9 10.00 Fair CLR 88.3 37.2 16% 85 30.01 0.0
11 13:35 SW 6 G 16 10.00 Fair CLR 87.6 39.2 18% 84 30.01 0.0
11 13:15 S 6 G 16 10.00 Fair CLR 86 44.4 23% 83 30.03 0.0
11 12:55 SE 6 10.00 Fair CLR 83.5 44.6 26% 81 30.03 0.0
11 12:35 S 8 10.00 Fair CLR 83.5 45.3 26% 81 30.04 0.0
11 12:15 E 5 10.00 Fair CLR 82.9 45.1 27% 81 30.05 0.0
11 11:55 SE 8 10.00 Fair CLR 82.4 45 82.4 53.1 27% 81 30.06 0.0
11 11:35 SE 8 10.00 Fair CLR 81 44.8 28% 80 30.07 0.0
11 11:20 SE 6 10.00 Fair CLR 80.1 43.9 28% 79 30.07 0.0
11 11:10 SE 6 10.00 Fair CLR 79.7 43.7 28% 79 30.07 0.0
11 10:35 SE 7 10.00 Fair CLR 78.1 45 31% 78 30.08 0.0
11 10:15 SE 10 10.00 Fair CLR 77.4 46.4 34% 78 30.08 0.0
11 09:55 S 8 10.00 Fair CLR 75 46.9 37% 77 30.09 0.0
11 09:35 SE 6 10.00 Fair CLR 72.5 50 45% 30.09 0.0
11 09:15 SE 8 10.00 Fair CLR 71.8 51.6 49% 30.1 0.0
11 08:55 S 3 10.00 Fair CLR 70.7 52 52% 30.1 0.0
11 08:35 S 6 10.00 Fair CLR 69.4 52.9 56% 30.1 0.0
11 08:15 S 5 10.00 Fair CLR 68.2 55.2 63% 30.1 0.0
11 07:55 SW 3 10.00 Fair CLR 66.2 54.3 66% 30.11 0.0
11 07:35 Calm 10.00 Partly Cloudy SCT100 63.9 53.6 69% 30.11 0.0
11 07:15 SW 3 10.00 Partly Cloudy SCT100 62.2 53.4 73% 30.11 0.0
11 06:55 SW 3 10.00 Fair CLR 59.9 53.1 78% 30.11 0.0
11 06:35 SW 3 10.00 Fair CLR 58.1 52.7 82% 30.1 0.0
11 06:15 S 3 10.00 Fair CLR 56.1 52.2 87% 30.1 0.0
11 05:55 Calm 10.00 Fair CLR 53.1 50 62.8 53.1 89% 30.1 0.0
11 05:35 Calm 10.00 Fair CLR 53.6 50.4 89% 30.1 0.0
11 05:15 Calm 10.00 Fair CLR 55 50.9 86% 30.1 0.0
11 04:55 S 3 10.00 Fair CLR 55.6 51.1 85% 30.1 0.0
11 04:35 Calm 10.00 Fair CLR 53.6 50.2 88% 30.1 0.0
11 04:15 Calm 10.00 Mostly Cloudy SCT075 SCT090 BKN120 55.9 51.1 84% 30.1 0.0
11 03:55 SE 3 10.00 Overcast OVC075 56.3 51.4 84% 30.1 0.0
11 03:35 Calm 10.00 Overcast OVC075 57.2 51.3 81% 30.1 0.0
11 03:15 SE 3 10.00 Mostly Cloudy BKN075 56.8 50.9 81% 30.1 0.0
11 02:55 S 3 10.00 Mostly Cloudy BKN075 BKN090 BKN110 58.1 50.5 76% 30.11 0.0
11 02:35 SE 10 10.00 Mostly Cloudy SCT085 BKN110 60.1 47.8 64% 30.1 0.0
11 02:15 SE 5 10.00 Mostly Cloudy SCT065 SCT085 BKN120 59 50.4 73% 30.11 0.0
11 01:55 SE 7 10.00 Mostly Cloudy BKN075 BKN090 60.1 51.8 74% 30.11 0.0
11 01:35 SE 8 10.00 Overcast BKN075 OVC090 61.3 52.2 72% 30.11 0.0
11 01:15 SE 10 G 17 10.00 Mostly Cloudy SCT075 BKN090 62.2 54.5 76% 30.1 0.0
11 00:55 E 7 10.00 Mostly Cloudy SCT075 BKN100 62.1 56.7 83% 30.1 0.0
11 00:35 NE 5 10.00 Mostly Cloudy BKN100 62.6 56.5 81% 30.09 0.0
11 00:15 Calm 10.00 Partly Cloudy SCT100 62.1 56.3 82% 30.09 0.0
10 23:55 Calm 10.00 Mostly Cloudy SCT070 BKN100 62.8 55.9 81 62.8 78% 30.08 0.0
10 23:35 Calm 10.00 Overcast OVC070 63.7 56.7 78% 30.08 0.0
10 23:15 N 3 10.00 Overcast OVC070 64 56.5 77% 30.07 0.0
10 22:55 NW 3 10.00 Overcast BKN070 OVC120 64.8 56.7 75% 30.07 0.0
10 22:35 Calm 10.00 Mostly Cloudy BKN070 BKN090 BKN120 65.3 56.5 73% 30.06 0.0
10 22:15 Calm 10.00 Mostly Cloudy BKN070 BKN090 65.8 56.5 72% 30.05 0.0
10 21:55 Calm 10.00 Overcast OVC060 65.3 56.5 73% 30.05 0.0
10 21:35 Calm 10.00 Mostly Cloudy BKN060 65.1 56.3 73% 30.03 0.0
10 21:15 Calm 10.00 Fair CLR 64.4 55.9 74% 30.02 0.0
10 20:55 Calm 10.00 Fair CLR 65.3 56.7 74% 30 0.0
10 20:35 N 3 10.00 Fair CLR 66.2 56.8 72% 29.99 0.0
10 20:15 NE 7 10.00 Fair CLR 67.1 56.7 69% 29.97 0.0
10 19:55 E 8 10.00 Partly Cloudy SCT070 68.4 56.5 66% 29.97 0.0
10 19:35 NE 9 G 16 10.00 Partly Cloudy SCT060 SCT070 SCT120 68.2 57.2 68% 29.97 0.0
10 19:15 NE 10 10.00 Partly Cloudy SCT060 SCT120 68 57.2 69% 29.98 0.0
10 18:55 NE 16 G 22 10.00 Fair CLR 69.1 57.7 67% 29.96 0.0
10 18:35 N 15 G 23 10.00 Partly Cloudy SCT110 75 55.9 52% 78 29.93 0.0
10 18:15 NE 6 10.00 Thunderstorm in Vicinity CLR 80.6 48.4 32% 80 29.9 0.0
10 17:55 E 8 10.00 Thunderstorm in Vicinity SCT100 76.6 52.5 94.3 74.7 43% 78 29.89 0.0
10 17:35 E 9 G 18 10.00 Mostly Cloudy SCT090 BKN110 75.2 51.8 44% 78 29.89 0.0
10 17:15 NE 15 G 20 10.00 Thunderstorm in Vicinity SCT100 75.4 52 44% 78 29.89 0.0
10 16:55 NE 13 G 17 10.00 Partly Cloudy SCT110 79.5 48.6 34% 79 29.87 0.0
10 16:35 E 8 10.00 Partly Cloudy SCT100 80.2 49.3 34% 80 29.86 0.0
10 16:15 NW 10 10.00 Fair CLR 85.3 37.4 18% 82 29.87 0.0
10 15:55 NW 12 G 22 10.00 Fair CLR 87.3 33.6 15% 84 29.87 0.0
10 15:35 NW 18 G 25 10.00 Partly Cloudy SCT110 90.7 34.7 14% 87 29.86 0.0
10 15:15 NW 26 G 37 10.00 Partly Cloudy and Windy SCT110 92.1 36.7 14% 88 29.86 0.0
10 14:55 NW 12 10.00 Partly Cloudy SCT110 91.8 37 15% 88 29.85 0.0
10 14:35 W 10 G 22 10.00 Fair CLR 93.4 37.6 14% 89 29.85 0.0
10 14:15 W 12 G 18 10.00 Partly Cloudy SCT110 92.3 37.2 14% 88 29.86 0.0
10 13:55 NW 13 G 16 10.00 Partly Cloudy SCT100 92.7 37.6 14% 88 29.87 0.0
10 13:35 NW 13 G 24 10.00 Partly Cloudy SCT100 90.1 37.8 16% 86 29.87 0.0
10 13:15 W 3 7.00 Fair CLR 91 44.1 20% 87 29.88 0.0
10 12:55 SW 3 10.00 Fair CLR 88.9 45.9 22% 86 29.9 0.0
10 12:35 Calm 10.00 Fair CLR 89.1 48.2 24% 86 29.91 0.0
10 12:15 NW 5 10.00 Fair CLR 86.5 48.4 27% 84 29.92 0.0
10 11:55 SW 5 10.00 Fair CLR 83.8 48 83.8 60.3 29% 82 29.93 0.0
10 11:35 Calm 10.00 Fair CLR 81.3 48.9 32% 80 29.93 0.0
10 11:15 SE 3 10.00 Fair CLR 82.8 49.6 32% 81 29.93 0.0
10 10:55 W 3 10.00 Fair CLR 81.9 49.3 32% 81 29.94 0.0
10 10:35 S 3 10.00 Fair CLR 78.6 50.2 37% 79 29.95 0.0
10 10:15 Calm 10.00 Fair CLR 76.5 52 43% 78 29.95 0.0
10 09:55 Calm 10.00 Fair CLR 74.8 52.9 46% 29.96 0.0
10 09:35 W 5 10.00 Fair CLR 73.9 54.5 51% 29.97 0.0
10 09:15 SW 3 10.00 Fair CLR 71.4 57 61% 29.97 0.0
10 08:55 W 3 10.00 Fair CLR 69.1 57.2 66% 29.98 0.0
10 08:35 Calm 10.00 Fair CLR 68 56.7 67% 29.98 0.0
10 08:15 Calm 10.00 Fair CLR 67.8 56.7 68% 29.99 0.0
10 07:55 SW 5 10.00 Fair CLR 65.8 56.1 71% 29.99 0.0
10 07:35 Calm 10.00 Fair CLR 63 55.8 77% 30 0.0
10 07:15 Calm 10.00 Fair CLR 61.5 55.2 80% 30 0.0
10 06:55 W 3 10.00 Fair CLR 62.2 55.8 79% 30.01 0.0
10 06:35 SW 5 10.00 Fair CLR 62.1 56.3 82% 30.01 0.0
10 06:15 S 5 10.00 Fair CLR 62.1 56.5 82% 30.01 0.0
10 05:55 SE 8 10.00 Fair CLR 60.1 56.1 65.5 59.9 87% 30 0.0
10 05:35 SE 6 10.00 Fair CLR 59.9 55.8 86% 30 0.0
10 05:15 SE 10 10.00 Fair CLR 61.2 56.3 84% 30 0.0
10 04:55 S 10 10.00 Fair CLR 60.8 56.3 85% 30.01 0.0
10 04:35 SE 8 10.00 Fair CLR 60.1 55.8 86% 30.01 0.0
10 04:15 SE 7 10.00 Fair CLR 60.6 55.9 85% 30.01 0.0
10 03:55 SE 8 10.00 Fair CLR 60.4 55.8 85% 30 0.0
10 03:35 SE 9 10.00 Fair CLR 60.3 55.8 85% 30.01 0.0
10 03:15 SE 7 10.00 Fair CLR 60.4 55.6 84% 30.01 0.0
10 02:55 S 3 10.00 Fair CLR 61.2 55.4 81% 30.03 0.0
10 02:35 SE 10 10.00 Fair CLR 60.8 55.4 83% 30.03 0.0
10 02:15 S 5 10.00 Fair CLR 61.7 55.4 80% 30.04 0.0
10 01:55 S 8 10.00 Fair CLR 62.6 55.4 77% 30.03 0.0
10 01:35 S 8 10.00 Fair CLR 61.3 55.4 81% 30.04 0.0
10 01:15 SE 7 10.00 Fair CLR 61.7 54.7 78% 30.06 0.0
10 00:55 S 7 10.00 Fair CLR 63.7 55 74% 30.07 0.0
10 00:35 S 5 10.00 Fair CLR 64.4 54.9 71% 30.08 0.0
10 00:15 SW 10 G 24 10.00 Fair CLR 64.8 54.9 70% 30.08 0.0
09 23:55 S 22 G 29 10.00 Partly Cloudy and Breezy SCT120 65.5 54.5 74.7 65.5 68% 30.05 0.0
09 23:35 S 24 G 30 10.00 Mostly Cloudy and Breezy BKN120 66.6 54.5 65% 30.06 0.0
09 23:15 S 17 G 24 10.00 Partly Cloudy SCT120 67.3 54.7 64% 30.09 0.0
09 22:55 S 12 G 16 10.00 Fair CLR 67.6 55.4 65% 30.09 0.0
Date Time (mdt) Wind (mph) Vis. (mi.) Weather Sky Cond. Air Dwpt Max. Min. Relative Humidity Wind Chill (°F) Heat Index (°F) altimeter (in) sea level (mb) 1 hr 3 hr 6 hr
6 hour
Temperature (ºF) Pressure Precipitation (in)